Regional Weather Roundup
Issued by NWS

Home | Current Version | Previous Version | Text Only | Print | Product List | Glossary Off
Versions: 1 2 3 4 5 6 7 8 9 10 11 12 13 14 15 16 17 18 19 20 21 22 23 24 25 26 27 28 29 30 31 32 33 34 35 36 37 38 39 40 41 42 43 44 45 46 47 48 49 50

000
ASUS43 KLOT 230503
RWRIL

ILLINOIS REGIONAL WEATHER ROUNDUP
NATIONAL WEATHER SERVICE CHICAGO/ROMEOVILLE IL
1200 AM CDT WED AUG 23 2017

NOTE: "FAIR" INDICATES FEW OR NO CLOUDS BELOW 12,000 FEET WITH NO
SIGNIFICANT WEATHER AND/OR OBSTRUCTIONS TO VISIBILITY.

* THESE STATIONS ARE NOT UNDER NWS QUALITY CONTROL. THEY ALSO MAY NOT
  REPORT WEATHER SUCH AS PRECIPITATION OR FOG.

ILZ001-002-007-009-015-016-024-230600-
NORTHWEST ILLINOIS

CITY           SKY/WX    TMP DP  RH WIND       PRES   REMARKS
MOLINE         CLEAR     59  53  80 SW5       30.07R
STERLING*      CLEAR     58  54  86 W5        30.06R
SAVANNA*       CLEAR     58  53  83 CALM      30.06S
$$

ILZ003-004-008-010-011-017-018-230600-
NORTH CENTRAL ILLINOIS

CITY           SKY/WX    TMP DP  RH WIND       PRES   REMARKS
ROCKFORD       CLEAR     57  52  83 S3        30.05R
FREEPORT*      CLEAR     56  51  84 SW5       30.06S
ROCHELLE*      CLEAR     53  51  94 W3        30.05S
DE KALB*       CLEAR     58  52  80 W7        30.04S
$$

ILZ005-006-012>014-019>023-230600-
NORTHEAST ILLINOIS

CITY           SKY/WX    TMP DP  RH WIND       PRES   REMARKS
CHICAGO-OHARE  CLEAR     66  50  56 W9        30.01R
CHICAGO-MIDWAY CLEAR     66  51  58 W6        30.01R
AURORA         CLEAR     55  53  93 W6        30.04R
LANSING*       CLEAR     64  50  61 NW5       30.01R
JOLIET*        CLEAR     63  55  76 CALM      30.03R
WAUKEGAN       CLEAR     62  52  69 CALM      29.99R
DUPAGE AIRPORT CLEAR     59  53  80 W6        30.02R
WHEELING       CLEAR     65  52  62 W5        30.02R
MORRIS*        CLEAR     55  53  92 NW6       30.02S
NORTHERLY ISL    N/A     70  49  47 W8          N/A
$$

LMZ740>746-230600-
SOUTHERN LAKE MICHIGAN

STATION/POSITION SKY/WX   TEMP    WIND        PRES    VSBY  WAVE
                          AIR SEA DIR/SP/G                  HT/PER
                          (F)     (DEG/KT/KT) (MB)    (MI)  (FT/S)
SOUTHERN BUOY              71 71  320/ 16/ 19 1013.9          4/ 5
WILMETTE HARBOR            70 73  290/ 12/ 16   N/A           3/ 5
HARRISON CRIB              71     300/ 15/ 17   N/A
CALUMET HARBOR             69     300/  4/  7 1015.4R
BURNS HARBOR               72     320/ 15/ 19 1015.6S
MICHIGAN CITY              71     310/ 19/ 21   N/A
MICHIGAN CITY 6N           72 74  330/ 16/ 19   N/A           6/ 5
ST. JOSEPH                 72 73  340/ 16/ 21 1015.1R         5/ 6
$$

ILZ025>027-034>036-040-047-049-050-058-095>099-230600-
WEST-CENTRAL ILLINOIS

CITY           SKY/WX    TMP DP  RH WIND       PRES   REMARKS
QUINCY         CLEAR     60  55  83 NW5       30.11R
MACOMB*        CLEAR     56  55  93 NW7       30.10F
$$

ILZ028>032-037-038-041>044-048-051>054-059>061-230600-
CENTRAL ILLINOIS

CITY           SKY/WX    TMP DP  RH WIND       PRES   REMARKS
BLOOMINGTON    CLEAR     63  54  72 NW9       30.07R
DECATUR        CLEAR     65  55  70 NW8       30.06R
PEORIA         CLEAR     61  55  81 NW3       30.07R
LACON*         PTCLDY    57  55  92 CALM      30.05R
LINCOLN*       CLEAR     62  57  85 CALM      30.06S
SPRINGFIELD    CLEAR     62  57  83 NW6       30.07R
TAYLORVILLE    NOT AVBL
$$

ILZ033-039-045-046-055>057-062-063-230600-
EAST-CENTRAL ILLINOIS

CITY           SKY/WX    TMP DP  RH WIND       PRES   REMARKS
CHAMPAIGN      CLEAR     60  56  86 NW5       30.05R
RANTOUL*       CLEAR     61  59  91 W6        30.04R
MATTOON        MOCLDY    62  61  96 W6        30.04R
PARIS*         CLEAR     59  57  94 NW3       30.04S
$$

ILZ079-100>102-230600-
SOUTHWEST ILLINOIS

CITY           SKY/WX    TMP DP  RH WIND       PRES   REMARKS
ALTON          CLEAR     61  61  99 CALM      30.08R
BELLEVILLE     CLEAR     67  58  74 N5        30.08R
CAHOKIA*       CLEAR     70  58  65 N8        30.07R
SPARTA*        CLEAR     68  61  79 N3        30.07R
$$

ILZ064>066-069>071-074>076-080>082-084>086-088>090-092>094-230600-
SOUTH-CENTRAL ILLINOIS

CITY           SKY/WX    TMP DP  RH WIND       PRES   REMARKS
CARBONDALE     CLEAR     68  66  93 NW6       30.05R
CAIRO*         CLEAR     66  66 100 CALM      30.04R FOG
EFFINGHAM*     CLEAR     63  62  96 NW5       30.06S
MARION         CLEAR     70  68  94 N3        30.05R
MT. VERNON       N/A     63  62  97 N3        30.05R FOG
CENTRALIA*     CLEAR     64  62  93 CALM      30.05R
SALEM*         CLEAR     63  59  87 CALM      30.05S
METROPOLIS*    CLEAR     68  67  96 CALM      30.03S
$$

ILZ067-068-072-073-078-083-087-091-230600-
SOUTHEAST ILLINOIS

CITY           SKY/WX    TMP DP  RH WIND       PRES   REMARKS
LAWRENCEVILLE  CLEAR     66  62  87 NW7       30.02R
FLORA*         CLEAR     66  62  85 NW6       30.04R
FAIRFIELD*     CLEAR     66  62  87 CALM      30.03R
HARRISBURG*    CLEAR     70  65  85 N5        30.03S
ROBINSON*      CLEAR     63  60  90 N3        30.03S
CARMI*         CLEAR     66  64  96 NW6       30.02S
$$

ABBREVIATIONS USED IN REMARKS
   TC - TEMPERATURE IN CELSIUS
  WCI - WIND CHILL INDEX
   HX - HEAT INDEX
  VSB - VISIBILITY
$$





USA.gov is the U.S. government's official web portal to all federal, state and local government web resources and services.